Evansville, IN

2:28 AM CDT on July 26, 2017 (GMT -0500)
Evansville Regional

Weather History for KEVV - May, 2012

Change the Weather History Date:

Saturday, May 19, 2012

  Actual Average Record
Temperature  
Mean Temperature 78 °F 67 °F  
Max Temperature 92 °F 78 °F 93 °F (1962)
Min Temperature 63 °F 55 °F 37 °F (2002)
Degree Days  
Heating Degree Days 0 2  
Month to date heating degree days 10 68  
Since 1 July heating degree days 3473 4523  
Cooling Degree Days 13 4  
Month to date cooling degree days 126 47  
Year to date cooling degree days 222 74  
Growing Degree Days 27 (Base 50)    
Moisture  
Dew Point 60 °F    
Average Humidity 60    
Maximum Humidity 87    
Minimum Humidity 32    
Precipitation  
Precipitation 0.00 in 0.17 in 1.43 in (1943)
Month to date precipitation 1.97 3.31  
Year to date precipitation 11.06 18.19  
Snow  
Snow 0.00 in 0.00 in 0.00 in (2002)
Month to date snowfall 0.0 0.0  
Since 1 July snowfall 0.5 11.8  
Snow Depth 0.00 in    
Sea Level Pressure  
Sea Level Pressure 30.04 in    
Wind  
Wind Speed 3 mph (SSE)    
Max Wind Speed 10 mph    
Max Gust Speed 18 mph    
Visibility 10 miles    
Events      
T = Trace of Precipitation, MM = Missing Value Source: NWS Daily Summary

Daily Weather History Graph

Daily Weather History Graph

Search for Another Location

Airport or City:

Trip Planner

Search our weather history database for the weather conditions in past years. The results will help you decide how hot, cold, wet, or windy it might be!

Date:

Astronomy

May. 19, 2012 Rise Set
Actual Time 5:36 AM CDT 7:57 PM CDT
Civil Twilight 5:06 AM CDT 8:27 PM CDT
Nautical Twilight 4:29 AM CDT 9:04 PM CDT
Astronomical Twilight 3:48 AM CDT 9:45 PM CDT
Moon 4:37 AM CDT (5/19) 7:02 PM CDT (5/19)
Length of Visible Light 15h 21m
Length of Day
14h 21m
Waning Crescent, 1% of the Moon is Illuminated
May 19
Waning Crescent
May 20
New
May 28
First Quarter
Jun 4
Full
Jun 11
Last Quarter

Hourly Weather History & Observations

Time (CDT) Temp. Heat Index Dew Point Humidity Pressure Visibility Wind Dir Wind Speed Gust Speed Precip Events Conditions
12:54 AM 69.1 °F - 61.0 °F 75% 30.01 in 10.0 mi ENE 3.5 mph - N/A   Scattered Clouds
1:54 AM 66.9 °F - 60.1 °F 79% 30.01 in 10.0 mi Calm Calm - N/A   Clear
2:54 AM 64.9 °F - 59.0 °F 81% 30.01 in 10.0 mi ENE 3.5 mph - N/A   Clear
3:54 AM 64.0 °F - 60.1 °F 87% 30.01 in 10.0 mi ENE 3.5 mph - N/A   Clear
4:54 AM 64.9 °F - 60.1 °F 84% 30.02 in 10.0 mi Calm Calm - N/A   Clear
5:54 AM 64.9 °F - 60.1 °F 84% 30.04 in 8.0 mi Calm Calm - N/A   Clear
6:54 AM 66.9 °F - 61.0 °F 81% 30.06 in 7.0 mi Calm Calm - N/A   Clear
7:54 AM 72.0 °F - 63.0 °F 73% 30.08 in 9.0 mi Calm Calm - N/A   Clear
8:54 AM 77.0 °F - 63.0 °F 62% 30.09 in 10.0 mi SSE 4.6 mph - N/A   Clear
9:54 AM 80.1 °F 81.5 °F 63.0 °F 56% 30.09 in 10.0 mi SSE 4.6 mph - N/A   Clear
10:54 AM 84.0 °F 84.5 °F 62.1 °F 47% 30.08 in 10.0 mi SW 6.9 mph - N/A   Clear
11:54 AM 86.0 °F 86.1 °F 61.0 °F 43% 30.07 in 10.0 mi Calm Calm - N/A   Partly Cloudy
12:54 PM 88.0 °F 86.9 °F 57.9 °F 36% 30.06 in 10.0 mi South 6.9 mph - N/A   Clear
1:54 PM 87.1 °F 86.7 °F 60.1 °F 40% 30.06 in 10.0 mi SSW 3.5 mph - N/A   Mostly Cloudy
2:54 PM 89.1 °F 88.0 °F 57.9 °F 35% 30.04 in 10.0 mi South 5.8 mph - N/A   Mostly Cloudy
3:54 PM 90.0 °F 89.1 °F 59.0 °F 35% 30.02 in 10.0 mi Calm Calm - N/A   Mostly Cloudy
4:54 PM 91.0 °F 90.0 °F 57.9 °F 33% 30.01 in 10.0 mi WNW 3.5 mph - N/A   Scattered Clouds
5:54 PM 87.1 °F 86.1 °F 57.9 °F 37% 30.01 in 10.0 mi SSE 6.9 mph - N/A   Mostly Cloudy
6:54 PM 84.9 °F 84.2 °F 57.9 °F 40% 30.01 in 10.0 mi South 5.8 mph - N/A   Scattered Clouds
7:54 PM 82.0 °F 82.0 °F 57.9 °F 44% 30.03 in 10.0 mi SSE 4.6 mph - N/A   Clear
8:54 PM 79.0 °F - 59.0 °F 50% 30.04 in 10.0 mi South 4.6 mph - N/A   Clear
9:54 PM 77.0 °F - 60.1 °F 56% 30.06 in 10.0 mi SE 3.5 mph - N/A   Clear
10:54 PM 70.0 °F - 61.0 °F 73% 30.06 in 10.0 mi Calm Calm - N/A   Clear
11:54 PM 70.0 °F - 61.0 °F 73% 30.06 in 10.0 mi Calm Calm - N/A   Clear